contact:dominique.lefevre@mio.osupytheas.fr, maurice.libes@osupytheas.fr, didier.mallarino@osupytheas.fr
Project:EMSO http://www.emso-fr.org/EMSO-France
Depth: 2436.0 m
Title:EMSO Ligure Ouest : Data MII capteur MICROCAT
DateTime_Computer,Latitude,Longitude,Temperature,Conductivity,Pressure,DateTime_Instrument
DateTime_Computer,Latitude,Longitude,degC,S m-1,dbar,DateTime_Instrument
2020-04-04T00:01:21Z,42.805,6.029,13.2993,4.59995,2470.007,2020-4-04T02:02:00Z
2020-04-04T00:04:25Z,42.805,6.029,13.3021,4.60017,2470.03,2020-4-04T02:05:03Z
2020-04-04T00:07:28Z,42.805,6.029,13.3002,4.60011,2470.017,2020-4-04T02:08:06Z
2020-04-04T00:10:31Z,42.805,6.029,13.2999,4.60003,2469.993,2020-4-04T02:11:10Z
2020-04-04T00:13:34Z,42.805,6.029,13.2997,4.60002,2470.017,2020-4-04T02:14:13Z
2020-04-04T00:16:38Z,42.805,6.029,13.3008,4.60001,2470.03,2020-4-04T02:17:16Z
2020-04-04T00:19:41Z,42.805,6.029,13.2991,4.59995,2470.03,2020-4-04T02:20:19Z
2020-04-04T00:22:44Z,42.805,6.029,13.3004,4.60011,2470.03,2020-4-04T02:23:23Z
2020-04-04T00:25:47Z,42.805,6.029,13.3004,4.59999,2469.984,2020-4-04T02:26:26Z
2020-04-04T00:28:51Z,42.805,6.029,13.3009,4.60002,2469.993,2020-4-04T02:29:29Z
2020-04-04T00:31:54Z,42.805,6.029,13.2994,4.60007,2470.007,2020-4-04T02:32:33Z
2020-04-04T00:34:57Z,42.805,6.029,13.3004,4.59998,2470.04,2020-4-04T02:35:36Z
2020-04-04T00:38:00Z,42.805,6.029,13.3000,4.60000,2470.03,2020-4-04T02:38:39Z
2020-04-04T00:41:04Z,42.805,6.029,13.3003,4.60002,2470.017,2020-4-04T02:41:42Z
2020-04-04T00:44:07Z,42.805,6.029,13.3020,4.59996,2470.04,2020-4-04T02:44:46Z
2020-04-04T00:47:10Z,42.805,6.029,13.3001,4.60005,2470.03,2020-4-04T02:47:49Z
2020-04-04T00:50:13Z,42.805,6.029,13.3015,4.59995,2470.017,2020-4-04T02:50:52Z
2020-04-04T00:53:16Z,42.805,6.029,13.3006,4.60002,2470.04,2020-4-04T02:53:55Z
2020-04-04T00:56:20Z,42.805,6.029,13.3011,4.59996,2470.04,2020-4-04T02:56:58Z
2020-04-04T00:59:23Z,42.805,6.029,13.2999,4.59996,2470.017,2020-4-04T03:00:02Z
2020-04-04T01:02:26Z,42.805,6.029,13.3019,4.60006,2470.04,2020-4-04T03:03:05Z
2020-04-04T01:05:30Z,42.805,6.029,13.2999,4.60007,2470.03,2020-4-04T03:06:08Z
2020-04-04T01:08:33Z,42.805,6.029,13.3027,4.60016,2470.053,2020-4-04T03:09:12Z
2020-04-04T01:11:36Z,42.805,6.029,13.3004,4.60014,2470.04,2020-4-04T03:12:15Z
2020-04-04T01:14:39Z,42.805,6.029,13.3001,4.60010,2470.04,2020-4-04T03:15:18Z
2020-04-04T01:17:43Z,42.805,6.029,13.3004,4.60014,2470.04,2020-4-04T03:18:21Z
2020-04-04T01:20:46Z,42.805,6.029,13.3005,4.59999,2470.053,2020-4-04T03:21:24Z
2020-04-04T01:23:49Z,42.805,6.029,13.2997,4.60003,2470.053,2020-4-04T03:24:28Z
2020-04-04T01:26:52Z,42.805,6.029,13.3009,4.59998,2470.04,2020-4-04T03:27:31Z
2020-04-04T01:29:55Z,42.805,6.029,13.3007,4.60003,2470.063,2020-4-04T03:30:34Z
2020-04-04T01:32:59Z,42.805,6.029,13.3018,4.60003,2470.063,2020-4-04T03:33:37Z
2020-04-04T01:36:02Z,42.805,6.029,13.2999,4.60006,2470.04,2020-4-04T03:36:41Z
2020-04-04T01:39:05Z,42.805,6.029,13.3011,4.60020,2470.077,2020-4-04T03:39:44Z
2020-04-04T01:42:09Z,42.805,6.029,13.2996,4.59995,2470.063,2020-4-04T03:42:47Z
2020-04-04T01:45:12Z,42.805,6.029,13.3004,4.60005,2470.077,2020-4-04T03:45:51Z
2020-04-04T01:48:15Z,42.805,6.029,13.3011,4.60018,2470.077,2020-4-04T03:48:54Z
2020-04-04T01:51:18Z,42.805,6.029,13.3012,4.60021,2470.087,2020-4-04T03:51:57Z
2020-04-04T01:54:22Z,42.805,6.029,13.3025,4.60002,2470.063,2020-4-04T03:55:00Z
2020-04-04T01:57:25Z,42.805,6.029,13.3009,4.60036,2470.1,2020-4-04T03:58:04Z
2020-04-04T02:00:28Z,42.805,6.029,13.3029,4.59999,2470.063,2020-4-04T04:01:07Z
2020-04-04T02:03:32Z,42.805,6.029,13.3004,4.60000,2470.1,2020-4-04T04:04:10Z
2020-04-04T02:06:35Z,42.805,6.029,13.3040,4.60003,2470.077,2020-4-04T04:07:13Z
2020-04-04T02:09:38Z,42.805,6.029,13.3018,4.60006,2470.063,2020-4-04T04:10:17Z
2020-04-04T02:12:41Z,42.805,6.029,13.3031,4.60005,2470.1,2020-4-04T04:13:20Z
2020-04-04T02:15:45Z,42.805,6.029,13.3031,4.60008,2470.1,2020-4-04T04:16:23Z
2020-04-04T02:18:48Z,42.805,6.029,13.3021,4.60001,2470.1,2020-4-04T04:19:27Z
2020-04-04T02:21:51Z,42.805,6.029,13.2999,4.59999,2470.124,2020-4-04T04:22:30Z
2020-04-04T02:24:54Z,42.805,6.029,13.3023,4.60013,2470.124,2020-4-04T04:25:33Z
2020-04-04T02:27:58Z,42.805,6.029,13.3014,4.60008,2470.087,2020-4-04T04:28:36Z
2020-04-04T02:31:01Z,42.805,6.029,13.3003,4.59990,2470.087,2020-4-04T04:31:39Z
2020-04-04T02:34:04Z,42.805,6.029,13.3000,4.60004,2470.124,2020-4-04T04:34:43Z
2020-04-04T02:37:07Z,42.805,6.029,13.2995,4.60004,2470.1,2020-4-04T04:37:46Z
2020-04-04T02:40:11Z,42.805,6.029,13.3000,4.59999,2470.11,2020-4-04T04:40:49Z
2020-04-04T02:43:14Z,42.805,6.029,13.3012,4.60004,2470.147,2020-4-04T04:43:52Z
2020-04-04T02:46:17Z,42.805,6.029,13.3005,4.60003,2470.1,2020-4-04T04:46:56Z
2020-04-04T02:49:20Z,42.805,6.029,13.3011,4.60009,2470.063,2020-4-04T04:49:59Z
2020-04-04T02:52:23Z,42.805,6.029,13.3020,4.60004,2470.077,2020-4-04T04:53:02Z
2020-04-04T02:55:27Z,42.805,6.029,13.3015,4.60006,2470.1,2020-4-04T04:56:05Z
2020-04-04T02:58:30Z,42.805,6.029,13.3007,4.59997,2470.133,2020-4-04T04:59:09Z
2020-04-04T03:01:33Z,42.805,6.029,13.3019,4.60001,2470.124,2020-4-04T05:02:12Z
2020-04-04T03:04:36Z,42.805,6.029,13.3010,4.60026,2470.147,2020-4-04T05:05:15Z
2020-04-04T03:07:40Z,42.805,6.029,13.3043,4.60009,2470.1,2020-4-04T05:08:18Z
2020-04-04T03:10:43Z,42.805,6.029,13.3022,4.60011,2470.147,2020-4-04T05:11:22Z
2020-04-04T03:13:46Z,42.805,6.029,13.3021,4.59996,2470.124,2020-4-04T05:14:25Z
2020-04-04T03:16:49Z,42.805,6.029,13.3011,4.60033,2470.133,2020-4-04T05:17:28Z
2020-04-04T03:19:52Z,42.805,6.029,13.3006,4.60014,2470.133,2020-4-04T05:20:31Z
2020-04-04T03:22:56Z,42.805,6.029,13.2995,4.60003,2470.147,2020-4-04T05:23:34Z
2020-04-04T03:25:59Z,42.805,6.029,13.2994,4.59996,2470.133,2020-4-04T05:26:38Z
2020-04-04T03:29:02Z,42.805,6.029,13.3002,4.60014,2470.147,2020-4-04T05:29:41Z
2020-04-04T03:32:05Z,42.805,6.029,13.3003,4.60013,2470.124,2020-4-04T05:32:44Z
2020-04-04T03:35:09Z,42.805,6.029,13.3019,4.59994,2470.087,2020-4-04T05:35:47Z
2020-04-04T03:38:12Z,42.805,6.029,13.3001,4.59993,2470.1,2020-4-04T05:38:51Z
2020-04-04T03:41:15Z,42.805,6.029,13.3027,4.59999,2470.156,2020-4-04T05:41:54Z
2020-04-04T03:44:18Z,42.805,6.029,13.3024,4.60010,2470.156,2020-4-04T05:44:57Z
2020-04-04T03:47:22Z,42.805,6.029,13.3000,4.60001,2470.1,2020-4-04T05:48:00Z
2020-04-04T03:50:25Z,42.805,6.029,13.3009,4.60011,2470.11,2020-4-04T05:51:04Z
2020-04-04T03:53:28Z,42.805,6.029,13.3015,4.60015,2470.133,2020-4-04T05:54:07Z
2020-04-04T03:56:31Z,42.805,6.029,13.3008,4.60009,2470.124,2020-4-04T05:57:10Z
2020-04-04T03:59:35Z,42.805,6.029,13.3006,4.59999,2470.133,2020-4-04T06:00:13Z
2020-04-04T04:02:38Z,42.805,6.029,13.3009,4.60004,2470.133,2020-4-04T06:03:17Z
2020-04-04T04:05:41Z,42.805,6.029,13.3005,4.60014,2470.147,2020-4-04T06:06:20Z
2020-04-04T04:08:44Z,42.805,6.029,13.3011,4.60016,2470.11,2020-4-04T06:09:23Z
2020-04-04T04:11:48Z,42.805,6.029,13.3014,4.59999,2470.087,2020-4-04T06:12:26Z
2020-04-04T04:14:51Z,42.805,6.029,13.3011,4.59999,2470.124,2020-4-04T06:15:30Z
2020-04-04T04:17:54Z,42.805,6.029,13.3013,4.60039,2470.087,2020-4-04T06:18:33Z
2020-04-04T04:20:58Z,42.805,6.029,13.3021,4.60016,2470.147,2020-4-04T06:21:36Z
2020-04-04T04:24:01Z,42.805,6.029,13.3030,4.60014,2470.147,2020-4-04T06:24:40Z
2020-04-04T04:27:04Z,42.805,6.029,13.3021,4.60005,2470.133,2020-4-04T06:27:43Z
2020-04-04T04:30:07Z,42.805,6.029,13.3008,4.60008,2470.133,2020-4-04T06:30:46Z
2020-04-04T04:33:10Z,42.805,6.029,13.3015,4.60003,2470.133,2020-4-04T06:33:49Z
2020-04-04T04:36:14Z,42.805,6.029,13.3011,4.60016,2470.147,2020-4-04T06:36:52Z
2020-04-04T04:39:17Z,42.805,6.029,13.3006,4.60003,2470.124,2020-4-04T06:39:56Z
2020-04-04T04:42:20Z,42.805,6.029,13.2993,4.59998,2470.11,2020-4-04T06:42:59Z
2020-04-04T04:45:24Z,42.805,6.029,13.3000,4.60021,2470.147,2020-4-04T06:46:02Z
2020-04-04T04:48:27Z,42.805,6.029,13.3006,4.60011,2470.147,2020-4-04T06:49:05Z
2020-04-04T04:51:30Z,42.805,6.029,13.3008,4.59997,2470.171,2020-4-04T06:52:09Z
2020-04-04T04:54:33Z,42.805,6.029,13.3004,4.60010,2470.124,2020-4-04T06:55:12Z
2020-04-04T04:57:36Z,42.805,6.029,13.2999,4.60002,2470.11,2020-4-04T06:58:15Z
2020-04-04T05:00:40Z,42.805,6.029,13.2996,4.59992,2470.124,2020-4-04T07:01:18Z
2020-04-04T05:03:43Z,42.805,6.029,13.3007,4.60006,2470.11,2020-4-04T07:04:22Z
2020-04-04T05:06:46Z,42.805,6.029,13.3003,4.60009,2470.171,2020-4-04T07:07:25Z
2020-04-04T05:09:49Z,42.805,6.029,13.2998,4.60015,2470.124,2020-4-04T07:10:28Z
2020-04-04T05:12:53Z,42.805,6.029,13.2994,4.60004,2470.11,2020-4-04T07:13:31Z
2020-04-04T05:15:56Z,42.805,6.029,13.3004,4.60011,2470.133,2020-4-04T07:16:34Z
2020-04-04T05:18:59Z,42.805,6.029,13.3011,4.60013,2470.133,2020-4-04T07:19:38Z
2020-04-04T05:22:02Z,42.805,6.029,13.3009,4.60005,2470.087,2020-4-04T07:22:41Z
2020-04-04T05:25:05Z,42.805,6.029,13.3024,4.60009,2470.11,2020-4-04T07:25:44Z
2020-04-04T05:28:09Z,42.805,6.029,13.3006,4.60017,2470.11,2020-4-04T07:28:48Z
2020-04-04T05:31:12Z,42.805,6.029,13.3015,4.60001,2470.133,2020-4-04T07:31:51Z
2020-04-04T05:34:15Z,42.805,6.029,13.3026,4.59998,2470.1,2020-4-04T07:34:54Z
2020-04-04T05:37:19Z,42.805,6.029,13.3031,4.60019,2470.124,2020-4-04T07:37:57Z
2020-04-04T05:40:22Z,42.805,6.029,13.3029,4.60047,2470.124,2020-4-04T07:41:01Z
2020-04-04T05:43:25Z,42.805,6.029,13.3019,4.60021,2470.11,2020-4-04T07:44:04Z
2020-04-04T05:46:28Z,42.805,6.029,13.2996,4.60016,2470.156,2020-4-04T07:47:07Z
2020-04-04T05:49:32Z,42.805,6.029,13.3009,4.60021,2470.124,2020-4-04T07:50:11Z
2020-04-04T05:52:35Z,42.805,6.029,13.3022,4.60021,2470.147,2020-4-04T07:53:14Z
2020-04-04T05:55:38Z,42.805,6.029,13.3029,4.60003,2470.124,2020-4-04T07:56:17Z
2020-04-04T05:58:42Z,42.805,6.029,13.2991,4.60007,2470.124,2020-4-04T07:59:20Z
2020-04-04T06:01:45Z,42.805,6.029,13.3051,4.60033,2470.11,2020-4-04T08:02:24Z
2020-04-04T06:04:48Z,42.805,6.029,13.3019,4.60024,2470.133,2020-4-04T08:05:27Z
2020-04-04T06:07:51Z,42.805,6.029,13.3029,4.60039,2470.063,2020-4-04T08:08:30Z
2020-04-04T06:10:55Z,42.805,6.029,13.3026,4.60022,2470.1,2020-4-04T08:11:33Z
2020-04-04T06:13:58Z,42.805,6.029,13.3031,4.60003,2470.1,2020-4-04T08:14:36Z
2020-04-04T06:17:01Z,42.805,6.029,13.3008,4.59994,2470.124,2020-4-04T08:17:40Z
2020-04-04T06:20:04Z,42.805,6.029,13.3052,4.60006,2470.124,2020-4-04T08:20:43Z
2020-04-04T06:23:07Z,42.805,6.029,13.2998,4.60010,2470.11,2020-4-04T08:23:46Z
2020-04-04T06:26:11Z,42.805,6.029,13.3018,4.60000,2470.124,2020-4-04T08:26:49Z
2020-04-04T06:29:14Z,42.805,6.029,13.3015,4.60001,2470.087,2020-4-04T08:29:53Z
2020-04-04T06:32:17Z,42.805,6.029,13.3000,4.60017,2470.147,2020-4-04T08:32:56Z
2020-04-04T06:35:20Z,42.805,6.029,13.3048,4.60003,2470.087,2020-4-04T08:35:59Z
2020-04-04T06:38:24Z,42.805,6.029,13.3005,4.60003,2470.124,2020-4-04T08:39:02Z
2020-04-04T06:41:27Z,42.805,6.029,13.3032,4.60002,2470.1,2020-4-04T08:42:06Z
2020-04-04T06:44:30Z,42.805,6.029,13.3033,4.60031,2470.077,2020-4-04T08:45:09Z
2020-04-04T06:47:33Z,42.805,6.029,13.3034,4.60004,2470.063,2020-4-04T08:48:12Z
2020-04-04T06:50:37Z,42.805,6.029,13.3016,4.60025,2470.147,2020-4-04T08:51:15Z
2020-04-04T06:53:40Z,42.805,6.029,13.3025,4.60024,2470.124,2020-4-04T08:54:18Z
2020-04-04T06:56:43Z,42.805,6.029,13.3009,4.60003,2470.11,2020-4-04T08:57:22Z
2020-04-04T06:59:46Z,42.805,6.029,13.3036,4.60014,2470.077,2020-4-04T09:00:25Z
2020-04-04T07:02:49Z,42.805,6.029,13.3027,4.60004,2470.1,2020-4-04T09:03:28Z
2020-04-04T07:05:53Z,42.805,6.029,13.3023,4.60014,2470.087,2020-4-04T09:06:31Z
2020-04-04T07:08:56Z,42.805,6.029,13.3030,4.60008,2470.1,2020-4-04T09:09:35Z
2020-04-04T07:11:59Z,42.805,6.029,13.3017,4.60016,2470.087,2020-4-04T09:12:38Z
2020-04-04T07:15:03Z,42.805,6.029,13.3015,4.60000,2470.087,2020-4-04T09:15:41Z
2020-04-04T07:18:06Z,42.805,6.029,13.3009,4.60009,2470.11,2020-4-04T09:18:45Z
2020-04-04T07:21:09Z,42.805,6.029,13.3027,4.60031,2470.1,2020-4-04T09:21:48Z
2020-04-04T07:24:12Z,42.805,6.029,13.3026,4.60014,2470.053,2020-4-04T09:24:51Z
2020-04-04T07:27:15Z,42.805,6.029,13.3030,4.60014,2470.077,2020-4-04T09:27:54Z
2020-04-04T07:30:19Z,42.805,6.029,13.3014,4.60007,2470.1,2020-4-04T09:30:57Z
2020-04-04T07:33:22Z,42.805,6.029,13.3006,4.60010,2470.077,2020-4-04T09:34:01Z
2020-04-04T07:36:25Z,42.805,6.029,13.3013,4.60023,2470.1,2020-4-04T09:37:04Z
2020-04-04T07:39:28Z,42.805,6.029,13.3022,4.60016,2470.053,2020-4-04T09:40:07Z
2020-04-04T07:42:32Z,42.805,6.029,13.2997,4.60014,2470.124,2020-4-04T09:43:10Z
2020-04-04T07:45:35Z,42.805,6.029,13.3011,4.60031,2470.063,2020-4-04T09:46:14Z
2020-04-04T07:48:38Z,42.805,6.029,13.3030,4.60011,2470.063,2020-4-04T09:49:17Z
2020-04-04T07:51:41Z,42.805,6.029,13.3011,4.60021,2470.077,2020-4-04T09:52:20Z
2020-04-04T07:54:44Z,42.805,6.029,13.3037,4.60022,2470.04,2020-4-04T09:55:23Z
2020-04-04T07:57:48Z,42.805,6.029,13.3012,4.60019,2470.053,2020-4-04T09:58:26Z
2020-04-04T08:00:51Z,42.805,6.029,13.3026,4.60016,2470.077,2020-4-04T10:01:30Z
2020-04-04T08:03:54Z,42.805,6.029,13.3017,4.60003,2470.053,2020-4-04T10:04:33Z
2020-04-04T08:06:57Z,42.805,6.029,13.3019,4.60002,2470.077,2020-4-04T10:07:36Z
2020-04-04T08:10:01Z,42.805,6.029,13.3020,4.60011,2470.053,2020-4-04T10:10:39Z
2020-04-04T08:13:04Z,42.805,6.029,13.3024,4.60021,2470.053,2020-4-04T10:13:42Z
2020-04-04T08:16:07Z,42.805,6.029,13.3029,4.60012,2470.03,2020-4-04T10:16:46Z
2020-04-04T08:19:10Z,42.805,6.029,13.3030,4.60000,2470.053,2020-4-04T10:19:49Z
2020-04-04T08:22:14Z,42.805,6.029,13.2998,4.60011,2470.077,2020-4-04T10:22:52Z
2020-04-04T08:25:17Z,42.805,6.029,13.3016,4.60010,2470.03,2020-4-04T10:25:56Z
2020-04-04T08:28:20Z,42.805,6.029,13.3021,4.60026,2470.04,2020-4-04T10:28:59Z
2020-04-04T08:31:23Z,42.805,6.029,13.3043,4.60010,2470.053,2020-4-04T10:32:02Z
2020-04-04T08:34:27Z,42.805,6.029,13.3016,4.60016,2470.053,2020-4-04T10:35:05Z
2020-04-04T08:37:30Z,42.805,6.029,13.3041,4.60024,2470.03,2020-4-04T10:38:09Z
2020-04-04T08:40:33Z,42.805,6.029,13.3036,4.60008,2469.993,2020-4-04T10:41:12Z
2020-04-04T08:43:36Z,42.805,6.029,13.3018,4.60008,2469.993,2020-4-04T10:44:15Z
2020-04-04T08:46:40Z,42.805,6.029,13.3013,4.60013,2470.007,2020-4-04T10:47:18Z
2020-04-04T08:49:43Z,42.805,6.029,13.3028,4.60018,2470.017,2020-4-04T10:50:22Z
2020-04-04T08:52:46Z,42.805,6.029,13.3037,4.60000,2469.984,2020-4-04T10:53:25Z
2020-04-04T08:55:49Z,42.805,6.029,13.3012,4.60004,2470.007,2020-4-04T10:56:28Z
2020-04-04T08:58:53Z,42.805,6.029,13.3015,4.60048,2470.007,2020-4-04T10:59:31Z
2020-04-04T09:01:56Z,42.805,6.029,13.3023,4.60006,2469.993,2020-4-04T11:02:35Z
2020-04-04T09:04:59Z,42.805,6.029,13.3043,4.60003,2470.017,2020-4-04T11:05:38Z
2020-04-04T09:08:02Z,42.805,6.029,13.3024,4.60008,2470.007,2020-4-04T11:08:41Z
2020-04-04T09:11:06Z,42.805,6.029,13.3020,4.60001,2470.017,2020-4-04T11:11:44Z
2020-04-04T09:14:09Z,42.805,6.029,13.3027,4.60006,2469.993,2020-4-04T11:14:48Z
2020-04-04T09:17:12Z,42.805,6.029,13.3019,4.60009,2470.017,2020-4-04T11:17:51Z
2020-04-04T09:20:15Z,42.805,6.029,13.3025,4.60019,2470.03,2020-4-04T11:20:54Z
2020-04-04T09:23:19Z,42.805,6.029,13.3041,4.60013,2469.993,2020-4-04T11:23:57Z
2020-04-04T09:26:22Z,42.805,6.029,13.3041,4.60005,2470.007,2020-4-04T11:27:01Z
2020-04-04T09:29:25Z,42.805,6.029,13.3023,4.60011,2470.017,2020-4-04T11:30:04Z
2020-04-04T09:32:29Z,42.805,6.029,13.3019,4.60016,2470.017,2020-4-04T11:33:07Z
2020-04-04T09:35:32Z,42.805,6.029,13.3020,4.60021,2470.007,2020-4-04T11:36:10Z
2020-04-04T09:38:35Z,42.805,6.029,13.3026,4.60023,2470.007,2020-4-04T11:39:14Z
2020-04-04T09:41:38Z,42.805,6.029,13.3027,4.60007,2470.017,2020-4-04T11:42:17Z
2020-04-04T09:44:42Z,42.805,6.029,13.3023,4.60021,2469.947,2020-4-04T11:45:20Z
2020-04-04T09:47:45Z,42.805,6.029,13.3012,4.60005,2469.984,2020-4-04T11:48:24Z
2020-04-04T09:50:48Z,42.805,6.029,13.3028,4.60012,2470.007,2020-4-04T11:51:27Z
2020-04-04T09:53:51Z,42.805,6.029,13.3016,4.60016,2469.97,2020-4-04T11:54:30Z
2020-04-04T09:56:55Z,42.805,6.029,13.3030,4.60025,2469.993,2020-4-04T11:57:33Z
2020-04-04T09:59:58Z,42.805,6.029,13.3018,4.60011,2470.007,2020-4-04T12:00:37Z
2020-04-04T10:03:01Z,42.805,6.029,13.3015,4.60011,2470.007,2020-4-04T12:03:40Z
2020-04-04T10:06:04Z,42.805,6.029,13.3028,4.60015,2470.007,2020-4-04T12:06:43Z
2020-04-04T10:09:08Z,42.805,6.029,13.3037,4.60027,2469.984,2020-4-04T12:09:46Z
2020-04-04T10:12:11Z,42.805,6.029,13.3029,4.60017,2470.017,2020-4-04T12:12:50Z
2020-04-04T10:15:14Z,42.805,6.029,13.3033,4.60015,2470.007,2020-4-04T12:15:53Z
2020-04-04T10:18:17Z,42.805,6.029,13.3011,4.60021,2469.97,2020-4-04T12:18:56Z
2020-04-04T10:21:21Z,42.805,6.029,13.3022,4.60016,2469.984,2020-4-04T12:21:59Z
2020-04-04T10:24:24Z,42.805,6.029,13.3015,4.60031,2469.947,2020-4-04T12:25:03Z
2020-04-04T10:27:27Z,42.805,6.029,13.3040,4.60019,2469.96,2020-4-04T12:28:06Z
2020-04-04T10:30:30Z,42.805,6.029,13.3027,4.60016,2469.984,2020-4-04T12:31:09Z
2020-04-04T10:33:34Z,42.805,6.029,13.3024,4.60018,2469.947,2020-4-04T12:34:12Z
2020-04-04T10:36:37Z,42.805,6.029,13.3018,4.60008,2469.947,2020-4-04T12:37:16Z
2020-04-04T10:39:40Z,42.805,6.029,13.3026,4.60011,2469.947,2020-4-04T12:40:19Z
2020-04-04T10:42:43Z,42.805,6.029,13.3044,4.60011,2469.984,2020-4-04T12:43:22Z
2020-04-04T10:45:47Z,42.805,6.029,13.3026,4.60010,2470.007,2020-4-04T12:46:26Z
2020-04-04T10:48:50Z,42.805,6.029,13.3017,4.60014,2469.974,2020-4-04T12:49:29Z
2020-04-04T10:51:53Z,42.805,6.029,13.3048,4.60024,2469.97,2020-4-04T12:52:32Z
2020-04-04T10:54:57Z,42.805,6.029,13.3033,4.60026,2469.96,2020-4-04T12:55:35Z
2020-04-04T10:58:00Z,42.805,6.029,13.3022,4.60012,2469.947,2020-4-04T12:58:39Z
2020-04-04T11:01:03Z,42.805,6.029,13.2982,4.60020,2469.923,2020-4-04T13:01:42Z
2020-04-04T11:04:06Z,42.805,6.029,13.2993,4.60019,2469.97,2020-4-04T13:04:45Z
2020-04-04T11:07:10Z,42.805,6.029,13.3043,4.60026,2469.97,2020-4-04T13:07:48Z
2020-04-04T11:10:13Z,42.805,6.029,13.2988,4.60021,2469.96,2020-4-04T13:10:52Z
2020-04-04T11:13:16Z,42.805,6.029,13.2993,4.60065,2469.984,2020-4-04T13:13:55Z
2020-04-04T11:16:19Z,42.805,6.029,13.2983,4.60019,2469.947,2020-4-04T13:16:58Z
2020-04-04T11:19:23Z,42.805,6.029,13.3054,4.60014,2469.947,2020-4-04T13:20:01Z
2020-04-04T11:22:26Z,42.805,6.029,13.3024,4.60036,2469.96,2020-4-04T13:23:04Z
2020-04-04T11:25:29Z,42.805,6.029,13.3016,4.60016,2469.937,2020-4-04T13:26:08Z
2020-04-04T11:28:32Z,42.805,6.029,13.3029,4.60013,2469.923,2020-4-04T13:29:11Z
2020-04-04T11:31:35Z,42.805,6.029,13.3039,4.60006,2469.96,2020-4-04T13:32:14Z
2020-04-04T11:34:39Z,42.805,6.029,13.3041,4.60014,2469.96,2020-4-04T13:35:17Z
2020-04-04T11:37:42Z,42.805,6.029,13.3039,4.60021,2469.96,2020-4-04T13:38:21Z
2020-04-04T11:40:45Z,42.805,6.029,13.3025,4.60036,2469.96,2020-4-04T13:41:24Z
2020-04-04T11:43:48Z,42.805,6.029,13.3053,4.60009,2469.96,2020-4-04T13:44:27Z
2020-04-04T11:46:52Z,42.805,6.029,13.3046,4.60011,2469.947,2020-4-04T13:47:31Z
2020-04-04T11:49:55Z,42.805,6.029,13.3050,4.60027,2469.937,2020-4-04T13:50:34Z
2020-04-04T11:52:58Z,42.805,6.029,13.3038,4.60014,2469.96,2020-4-04T13:53:37Z
2020-04-04T11:56:02Z,42.805,6.029,13.3035,4.60029,2469.947,2020-4-04T13:56:40Z
2020-04-04T11:59:05Z,42.805,6.029,13.3059,4.60018,2469.947,2020-4-04T13:59:44Z
2020-04-04T12:02:08Z,42.805,6.029,13.3048,4.60006,2469.96,2020-4-04T14:02:47Z
2020-04-04T12:05:11Z,42.805,6.029,13.3057,4.60009,2469.947,2020-4-04T14:05:50Z
2020-04-04T12:08:14Z,42.805,6.029,13.3040,4.60004,2469.937,2020-4-04T14:08:53Z
2020-04-04T12:11:18Z,42.805,6.029,13.3043,4.60004,2469.96,2020-4-04T14:11:56Z
2020-04-04T12:14:21Z,42.805,6.029,13.3039,4.60001,2469.96,2020-4-04T14:15:00Z
2020-04-04T12:17:24Z,42.805,6.029,13.3043,4.60006,2469.96,2020-4-04T14:18:03Z
2020-04-04T12:20:28Z,42.805,6.029,13.3036,4.60020,2469.947,2020-4-04T14:21:06Z
2020-04-04T12:23:31Z,42.805,6.029,13.3040,4.60019,2469.923,2020-4-04T14:24:10Z
2020-04-04T12:26:34Z,42.805,6.029,13.3048,4.60019,2469.984,2020-4-04T14:27:13Z
2020-04-04T12:29:38Z,42.805,6.029,13.3024,4.60008,2469.96,2020-4-04T14:30:16Z
2020-04-04T12:32:41Z,42.805,6.029,13.3054,4.60006,2469.947,2020-4-04T14:33:20Z
2020-04-04T12:35:44Z,42.805,6.029,13.3048,4.60009,2469.984,2020-4-04T14:36:23Z
2020-04-04T12:38:47Z,42.805,6.029,13.3032,4.60015,2469.984,2020-4-04T14:39:26Z
2020-04-04T12:41:50Z,42.805,6.029,13.3036,4.60016,2469.97,2020-4-04T14:42:29Z
2020-04-04T12:44:54Z,42.805,6.029,13.3067,4.60036,2469.96,2020-4-04T14:45:32Z
2020-04-04T12:47:57Z,42.805,6.029,13.3048,4.60017,2469.937,2020-4-04T14:48:36Z
2020-04-04T12:51:00Z,42.805,6.029,13.3048,4.60010,2469.923,2020-4-04T14:51:39Z
2020-04-04T12:54:03Z,42.805,6.029,13.3058,4.60019,2469.947,2020-4-04T14:54:42Z
2020-04-04T12:57:07Z,42.805,6.029,13.3067,4.60023,2469.937,2020-4-04T14:57:45Z
2020-04-04T13:00:10Z,42.805,6.029,13.3048,4.60022,2469.96,2020-4-04T15:00:49Z
2020-04-04T13:03:13Z,42.805,6.029,13.3057,4.60024,2469.96,2020-4-04T15:03:52Z
2020-04-04T13:06:16Z,42.805,6.029,13.3033,4.60031,2469.923,2020-4-04T15:06:55Z
2020-04-04T13:09:20Z,42.805,6.029,13.3029,4.60006,2469.984,2020-4-04T15:09:58Z
2020-04-04T13:12:23Z,42.805,6.029,13.3037,4.60026,2469.96,2020-4-04T15:13:02Z
2020-04-04T13:15:26Z,42.805,6.029,13.3024,4.60011,2469.96,2020-4-04T15:16:05Z
2020-04-04T13:18:29Z,42.805,6.029,13.3046,4.60043,2469.96,2020-4-04T15:19:08Z
2020-04-04T13:21:33Z,42.805,6.029,13.3046,4.60011,2469.984,2020-4-04T15:22:11Z
2020-04-04T13:24:36Z,42.805,6.029,13.3016,4.60029,2469.97,2020-4-04T15:25:15Z
2020-04-04T13:27:39Z,42.805,6.029,13.3002,4.60029,2469.984,2020-4-04T15:28:18Z
2020-04-04T13:30:42Z,42.805,6.029,13.3057,4.60049,2469.96,2020-4-04T15:31:21Z
2020-04-04T13:33:46Z,42.805,6.029,13.3027,4.60033,2469.96,2020-4-04T15:34:24Z
2020-04-04T13:36:49Z,42.805,6.029,13.3049,4.60014,2469.97,2020-4-04T15:37:28Z
2020-04-04T13:39:52Z,42.805,6.029,13.3028,4.60007,2469.937,2020-4-04T15:40:31Z
2020-04-04T13:42:55Z,42.805,6.029,13.3009,4.60001,2470.007,2020-4-04T15:43:34Z
2020-04-04T13:45:59Z,42.805,6.029,13.3016,4.60007,2469.984,2020-4-04T15:46:37Z
2020-04-04T13:49:02Z,42.805,6.029,13.3036,4.60021,2469.97,2020-4-04T15:49:40Z
2020-04-04T13:52:05Z,42.805,6.029,13.3039,4.60014,2469.984,2020-4-04T15:52:44Z
2020-04-04T13:55:08Z,42.805,6.029,13.3032,4.60007,2469.984,2020-4-04T15:55:47Z
2020-04-04T13:58:11Z,42.805,6.029,13.3013,4.59996,2469.984,2020-4-04T15:58:50Z
2020-04-04T14:01:15Z,42.805,6.029,13.3026,4.60002,2470.007,2020-4-04T16:01:53Z
2020-04-04T14:04:18Z,42.805,6.029,13.3019,4.60026,2469.97,2020-4-04T16:04:57Z
2020-04-04T14:07:21Z,42.805,6.029,13.3011,4.60019,2469.993,2020-4-04T16:08:00Z
2020-04-04T14:10:25Z,42.805,6.029,13.3004,4.60021,2469.97,2020-4-04T16:11:03Z
2020-04-04T14:13:28Z,42.805,6.029,13.2993,4.60023,2469.993,2020-4-04T16:14:07Z
2020-04-04T14:16:31Z,42.805,6.029,13.3002,4.59998,2469.993,2020-4-04T16:17:10Z
2020-04-04T14:19:34Z,42.805,6.029,13.3009,4.60016,2470.007,2020-4-04T16:20:13Z
2020-04-04T14:22:37Z,42.805,6.029,13.2998,4.60017,2469.97,2020-4-04T16:23:16Z
2020-04-04T14:25:41Z,42.805,6.029,13.3016,4.60032,2469.984,2020-4-04T16:26:19Z
2020-04-04T14:28:44Z,42.805,6.029,13.3044,4.60005,2470.03,2020-4-04T16:29:23Z
2020-04-04T14:31:47Z,42.805,6.029,13.3041,4.59998,2469.993,2020-4-04T16:32:26Z
2020-04-04T14:34:50Z,42.805,6.029,13.3032,4.60019,2470.03,2020-4-04T16:35:29Z
2020-04-04T14:37:54Z,42.805,6.029,13.3014,4.60026,2470.007,2020-4-04T16:38:32Z
2020-04-04T14:40:57Z,42.805,6.029,13.3055,4.60003,2470.007,2020-4-04T16:41:35Z
2020-04-04T14:44:00Z,42.805,6.029,13.3030,4.60014,2470.04,2020-4-04T16:44:39Z
2020-04-04T14:47:03Z,42.805,6.029,13.2995,4.60036,2469.993,2020-4-04T16:47:42Z
2020-04-04T14:50:06Z,42.805,6.029,13.3014,4.60077,2469.993,2020-4-04T16:50:45Z
2020-04-04T14:53:10Z,42.805,6.029,13.2991,4.60076,2469.993,2020-4-04T16:53:48Z
2020-04-04T14:56:13Z,42.805,6.029,13.3011,4.60084,2470.03,2020-4-04T16:56:51Z
2020-04-04T14:59:16Z,42.805,6.029,13.3015,4.60053,2470.03,2020-4-04T16:59:55Z
2020-04-04T15:02:19Z,42.805,6.029,13.3048,4.60028,2469.984,2020-4-04T17:02:58Z
2020-04-04T15:05:22Z,42.805,6.029,13.3041,4.60040,2470.017,2020-4-04T17:06:01Z
2020-04-04T15:08:25Z,42.805,6.029,13.3050,4.60028,2470.017,2020-4-04T17:09:04Z
2020-04-04T15:11:29Z,42.805,6.029,13.3012,4.60069,2470.007,2020-4-04T17:12:07Z
2020-04-04T15:14:32Z,42.805,6.029,13.3024,4.60055,2470.04,2020-4-04T17:15:11Z